User: anonymous   Login
Location: Newark
(40.9833°N, 0.0333°W)
Time: 14:19:37
(UTC+00:00)
Language:

Tiros 1 - Orbit

View from above orbital plane
View from above orbital plane
View from above satellite
View from above satellite

Ground track
Ground track

The orbit data is extracted from the following two-line orbital elements,

1    29U 60002B   20305.21171423 -.00000084  00000-0  18497-4 0  9996
2    29  48.3812  27.9214 0023474  93.7181 266.6415 14.74379825238691
Epoch (UTC): 31 October 2020 05:04:52
Eccentricity: 0.0023474
inclination: 48.3812°
perigee height: 630 km
apogee height: 663 km
right ascension of ascending node: 27.9214°
argument of perigee: 93.7181°
revolutions per day: 14.74379825
mean anomaly at epoch: 266.6415°
orbit number at epoch: 23869

The dashed part of the orbit path shows where the satellite is in the earth's shadow,  

DLR